Richmond, VA

10:45 PM EDT on May 26, 2017 (GMT -0400)
Richmond International

Weather History for KRIC - April, 2014

Change the Weather History Date:

Saturday, April 5, 2014

  Actual Average Record
Temperature  
Mean Temperature 59 °F 55 °F  
Max Temperature 70 °F 67 °F 89 °F (1942)
Min Temperature 47 °F 43 °F 26 °F (1939)
Degree Days  
Heating Degree Days 6 11  
Month to date heating degree days 22 56  
Since 1 July heating degree days 3588 3508  
Cooling Degree Days 0 1  
Month to date cooling degree days 3 4  
Year to date cooling degree days 5 10  
Growing Degree Days 10 (Base 50)    
Moisture  
Dew Point 37 °F    
Average Humidity 57    
Maximum Humidity 93    
Minimum Humidity 20    
Precipitation  
Precipitation 0.00 in 0.11 in 1.17 in (1941)
Month to date precipitation 0.01 0.58  
Year to date precipitation 9.56 10.42  
Snow  
Snow 0.00 in 0.00 in 0.00 in (2002)
Month to date snowfall 0.0 0.0  
Since 1 July snowfall 14.5 10.2  
Snow Depth 0.00 in    
Sea Level Pressure  
Sea Level Pressure 29.94 in    
Wind  
Wind Speed 8 mph (NNW)    
Max Wind Speed 18 mph    
Max Gust Speed 22 mph    
Visibility 10 miles    
Events Fog    
T = Trace of Precipitation, MM = Missing Value Source: NWS Daily Summary

Daily Weather History Graph

Daily Weather History Graph

Search for Another Location

Airport or City:

Trip Planner

Search our weather history database for the weather conditions in past years. The results will help you decide how hot, cold, wet, or windy it might be!

Date:

Astronomy

Apr. 05, 2014 Rise Set
Actual Time 6:48 AM EDT 7:35 PM EDT
Civil Twilight 6:22 AM EDT 8:02 PM EDT
Nautical Twilight 5:51 AM EDT 8:33 PM EDT
Astronomical Twilight 5:18 AM EDT 9:05 PM EDT
Moon 10:58 AM EDT (4/5) 12:39 AM EDT (4/5)
Length of Visible Light 13h 39m
Length of Day
12h 46m
Waxing Crescent, 34% of the Moon is Illuminated
Apr 5
Waxing Crescent
Apr 7
First Quarter
Apr 15
Full
Apr 22
Last Quarter
Apr 29
New

Hourly Weather History & Observations

Time (EDT) Temp. Dew Point Humidity Pressure Visibility Wind Dir Wind Speed Gust Speed Precip Events Conditions
12:54 AM 66.0 °F 54.0 °F 65% 29.75 in 10.0 mi NNW 3.5 mph - 0.01 in   Overcast
1:54 AM 61.0 °F 54.0 °F 78% 29.77 in 9.0 mi North 4.6 mph - N/A   Mostly Cloudy
2:54 AM 57.9 °F 53.1 °F 84% 29.77 in 7.0 mi Calm Calm - N/A   Scattered Clouds
3:54 AM 54.0 °F 52.0 °F 93% 29.78 in 8.0 mi Calm Calm - N/A Fog Shallow Fog
4:54 AM 55.9 °F 48.9 °F 77% 29.80 in 10.0 mi West 8.1 mph - N/A   Partly Cloudy
5:54 AM 60.1 °F 45.0 °F 57% 29.82 in 10.0 mi West 6.9 mph - N/A   Partly Cloudy
6:54 AM 55.9 °F 45.0 °F 67% 29.86 in 10.0 mi NNW 8.1 mph - N/A   Partly Cloudy
7:54 AM 57.9 °F 44.1 °F 60% 29.91 in 10.0 mi NNW 8.1 mph - N/A   Partly Cloudy
8:54 AM 60.1 °F 48.0 °F 64% 29.93 in 9.0 mi NE 6.9 mph - N/A   Scattered Clouds
9:54 AM 62.1 °F 35.1 °F 37% 29.95 in 10.0 mi NNW 10.4 mph - N/A   Scattered Clouds
10:54 AM 63.0 °F 33.1 °F 33% 29.96 in 10.0 mi NNW 15.0 mph 19.6 mph N/A   Scattered Clouds
11:54 AM 64.0 °F 32.0 °F 30% 29.96 in 10.0 mi WNW 6.9 mph - N/A   Scattered Clouds
12:54 PM 64.9 °F 30.0 °F 27% 29.96 in 10.0 mi West 10.4 mph 17.3 mph N/A   Scattered Clouds
1:54 PM 66.9 °F 30.0 °F 25% 29.96 in 10.0 mi West 10.4 mph - N/A   Scattered Clouds
2:54 PM 68.0 °F 30.0 °F 24% 29.96 in 10.0 mi Variable 6.9 mph - N/A   Partly Cloudy
3:54 PM 68.0 °F 27.0 °F 21% 29.96 in 10.0 mi West 10.4 mph 16.1 mph N/A   Scattered Clouds
4:54 PM 69.1 °F 27.0 °F 21% 29.98 in 10.0 mi NW 5.8 mph - N/A   Partly Cloudy
5:54 PM 66.9 °F 26.1 °F 21% 29.99 in 10.0 mi NNW 8.1 mph 17.3 mph N/A   Partly Cloudy
6:54 PM 64.0 °F 28.0 °F 26% 30.02 in 10.0 mi North 12.7 mph - N/A   Partly Cloudy
7:54 PM 59.0 °F 28.0 °F 31% 30.04 in 10.0 mi NNW 6.9 mph - N/A   Partly Cloudy
8:54 PM 55.9 °F 30.0 °F 37% 30.09 in 10.0 mi NNE 10.4 mph - N/A   Partly Cloudy
9:54 PM 53.1 °F 28.0 °F 38% 30.12 in 10.0 mi North 10.4 mph - N/A   Clear
10:54 PM 50.0 °F 28.0 °F 43% 30.14 in 10.0 mi NNE 8.1 mph - N/A   Clear
11:54 PM 48.9 °F 27.0 °F 43% 30.16 in 10.0 mi NNE 4.6 mph - N/A   Clear